owner,sensor,date,latitude,longitude,vertical_datum,mass_concentration_of_oxygen_in_sea_water,qcFlag 
TCOON,ioos:station:TCOON:127:1,2019-04-01T00:30:00Z,28.2598,-96.7737,1.0,8.8,1111122 
TCOON,ioos:station:TCOON:127:1,2019-04-01T01:30:00Z,28.2598,-96.7737,1.0,8.59,1111122 
TCOON,ioos:station:TCOON:127:1,2019-04-01T02:30:00Z,28.2598,-96.7737,1.0,8.98,1111122 
TCOON,ioos:station:TCOON:127:1,2019-04-01T03:30:00Z,28.2598,-96.7737,1.0,8.92,1111122 
TCOON,ioos:station:TCOON:127:1,2019-04-01T04:30:00Z,28.2598,-96.7737,1.0,8.88,1111122 
TCOON,ioos:station:TCOON:127:1,2019-04-01T05:30:00Z,28.2598,-96.7737,1.0,8.87,1111122 
TCOON,ioos:station:TCOON:127:1,2019-04-01T06:30:00Z,28.2598,-96.7737,1.0,8.94,1111122 
TCOON,ioos:station:TCOON:127:1,2019-04-01T07:30:00Z,28.2598,-96.7737,1.0,8.83,1111122 
TCOON,ioos:station:TCOON:127:1,2019-04-01T08:30:00Z,28.2598,-96.7737,1.0,8.74,1111122 
TCOON,ioos:station:TCOON:127:1,2019-04-01T09:30:00Z,28.2598,-96.7737,1.0,8.92,1111122 
TCOON,ioos:station:TCOON:127:1,2019-04-01T10:30:00Z,28.2598,-96.7737,1.0,9.03,1111122 
TCOON,ioos:station:TCOON:127:1,2019-04-01T11:30:00Z,28.2598,-96.7737,1.0,9.06,1111122 
TCOON,ioos:station:TCOON:127:1,2019-04-01T12:30:00Z,28.2598,-96.7737,1.0,9.1,1111122 
TCOON,ioos:station:TCOON:127:1,2019-04-01T13:30:00Z,28.2598,-96.7737,1.0,8.92,1111122 
TCOON,ioos:station:TCOON:127:1,2019-04-01T14:30:00Z,28.2598,-96.7737,1.0,9.08,1111122 
TCOON,ioos:station:TCOON:127:1,2019-04-01T15:30:00Z,28.2598,-96.7737,1.0,9.26,1111122 
TCOON,ioos:station:TCOON:127:1,2019-04-01T16:30:00Z,28.2598,-96.7737,1.0,9.19,1111122 
TCOON,ioos:station:TCOON:127:1,2019-04-01T17:30:00Z,28.2598,-96.7737,1.0,9.17,1111122 
TCOON,ioos:station:TCOON:127:1,2019-04-01T18:30:00Z,28.2598,-96.7737,1.0,9.36,1111122 
TCOON,ioos:station:TCOON:127:1,2019-04-01T19:30:00Z,28.2598,-96.7737,1.0,9.39,1111122 
TCOON,ioos:station:TCOON:127:1,2019-04-01T20:30:00Z,28.2598,-96.7737,1.0,9.83,1111122 
TCOON,ioos:station:TCOON:127:1,2019-04-01T21:30:00Z,28.2598,-96.7737,1.0,10.06,1111122 
TCOON,ioos:station:TCOON:127:1,2019-04-01T22:30:00Z,28.2598,-96.7737,1.0,10.5,1111122 
TCOON,ioos:station:TCOON:127:1,2019-04-01T23:30:00Z,28.2598,-96.7737,1.0,9.74,1111122 
TCOON,ioos:station:TCOON:127:1,2019-04-02T00:30:00Z,28.2598,-96.7737,1.0,10.27,1111122 
TCOON,ioos:station:TCOON:127:1,2019-04-02T01:30:00Z,28.2598,-96.7737,1.0,10.03,1111122 
TCOON,ioos:station:TCOON:127:1,2019-04-02T02:30:00Z,28.2598,-96.7737,1.0,10.03,1111122 
TCOON,ioos:station:TCOON:127:1,2019-04-02T03:30:00Z,28.2598,-96.7737,1.0,9.85,1111122 
TCOON,ioos:station:TCOON:127:1,2019-04-02T04:30:00Z,28.2598,-96.7737,1.0,9.9,1111122 
TCOON,ioos:station:TCOON:127:1,2019-04-02T06:00:00Z,28.2598,-96.7737,1.0,9.63,1111122 
TCOON,ioos:station:TCOON:127:1,2019-04-02T06:30:00Z,28.2598,-96.7737,1.0,9.59,1111122 
TCOON,ioos:station:TCOON:127:1,2019-04-02T07:30:00Z,28.2598,-96.7737,1.0,9.7,1111122 
TCOON,ioos:station:TCOON:127:1,2019-04-02T08:30:00Z,28.2598,-96.7737,1.0,9.12,1111122 
TCOON,ioos:station:TCOON:127:1,2019-04-02T09:30:00Z,28.2598,-96.7737,1.0,9.46,1111122 
TCOON,ioos:station:TCOON:127:1,2019-04-02T10:30:00Z,28.2598,-96.7737,1.0,9.74,1111122 
TCOON,ioos:station:TCOON:127:1,2019-04-02T11:30:00Z,28.2598,-96.7737,1.0,9.58,1111122 
TCOON,ioos:station:TCOON:127:1,2019-04-02T12:30:00Z,28.2598,-96.7737,1.0,9.8,1111122 
TCOON,ioos:station:TCOON:127:1,2019-04-02T13:30:00Z,28.2598,-96.7737,1.0,9.68,1111122 
TCOON,ioos:station:TCOON:127:1,2019-04-02T14:30:00Z,28.2598,-96.7737,1.0,9.67,1111122 
TCOON,ioos:station:TCOON:127:1,2019-04-02T15:30:00Z,28.2598,-96.7737,1.0,9.65,1111122 
TCOON,ioos:station:TCOON:127:1,2019-04-02T16:30:00Z,28.2598,-96.7737,1.0,9.33,1111122 
TCOON,ioos:station:TCOON:127:1,2019-04-02T17:30:00Z,28.2598,-96.7737,1.0,9.7,1111122 
TCOON,ioos:station:TCOON:127:1,2019-04-02T18:30:00Z,28.2598,-96.7737,1.0,9.35,1111122 
TCOON,ioos:station:TCOON:127:1,2019-04-02T19:30:00Z,28.2598,-96.7737,1.0,9.51,1111122 
TCOON,ioos:station:TCOON:127:1,2019-04-02T20:30:00Z,28.2598,-96.7737,1.0,8.66,1111122 
TCOON,ioos:station:TCOON:127:1,2019-04-02T21:30:00Z,28.2598,-96.7737,1.0,8.77,1111122 
TCOON,ioos:station:TCOON:127:1,2019-04-02T22:30:00Z,28.2598,-96.7737,1.0,8.81,1111122 
TCOON,ioos:station:TCOON:127:1,2019-04-02T23:30:00Z,28.2598,-96.7737,1.0,8.81,1111122 
TCOON,ioos:station:TCOON:127:1,2019-04-03T00:30:00Z,28.2598,-96.7737,1.0,8.79,1111122 
TCOON,ioos:station:TCOON:127:1,2019-04-03T01:30:00Z,28.2598,-96.7737,1.0,8.72,1111122 
TCOON,ioos:station:TCOON:127:1,2019-04-03T02:30:00Z,28.2598,-96.7737,1.0,8.62,1111122 
TCOON,ioos:station:TCOON:127:1,2019-04-03T03:30:00Z,28.2598,-96.7737,1.0,8.53,1111122 
TCOON,ioos:station:TCOON:127:1,2019-04-03T04:30:00Z,28.2598,-96.7737,1.0,8.45,1111122 
TCOON,ioos:station:TCOON:127:1,2019-04-03T05:30:00Z,28.2598,-96.7737,1.0,8.56,1111122 
TCOON,ioos:station:TCOON:127:1,2019-04-03T06:30:00Z,28.2598,-96.7737,1.0,8.46,1111122 
TCOON,ioos:station:TCOON:127:1,2019-04-03T07:30:00Z,28.2598,-96.7737,1.0,8.37,1111122 
TCOON,ioos:station:TCOON:127:1,2019-04-03T08:30:00Z,28.2598,-96.7737,1.0,8.38,1111122 
TCOON,ioos:station:TCOON:127:1,2019-04-03T09:30:00Z,28.2598,-96.7737,1.0,8.36,1111122 
TCOON,ioos:station:TCOON:127:1,2019-04-03T10:30:00Z,28.2598,-96.7737,1.0,8.32,1111122 
TCOON,ioos:station:TCOON:127:1,2019-04-03T11:30:00Z,28.2598,-96.7737,1.0,8.34,1111122 
TCOON,ioos:station:TCOON:127:1,2019-04-03T12:30:00Z,28.2598,-96.7737,1.0,8.26,1111122 
TCOON,ioos:station:TCOON:127:1,2019-04-03T13:30:00Z,28.2598,-96.7737,1.0,8.3,1111122 
TCOON,ioos:station:TCOON:127:1,2019-04-03T14:30:00Z,28.2598,-96.7737,1.0,8.23,1111122 
TCOON,ioos:station:TCOON:127:1,2019-04-03T15:30:00Z,28.2598,-96.7737,1.0,8.26,1111122 
TCOON,ioos:station:TCOON:127:1,2019-04-03T16:30:00Z,28.2598,-96.7737,1.0,8.31,1111122 
TCOON,ioos:station:TCOON:127:1,2019-04-03T17:30:00Z,28.2598,-96.7737,1.0,8.34,1111122 
TCOON,ioos:station:TCOON:127:1,2019-04-03T18:30:00Z,28.2598,-96.7737,1.0,8.35,1111122 
TCOON,ioos:station:TCOON:127:1,2019-04-03T19:30:00Z,28.2598,-96.7737,1.0,8.39,1111122 
TCOON,ioos:station:TCOON:127:1,2019-04-03T20:30:00Z,28.2598,-96.7737,1.0,8.4,1111122 
TCOON,ioos:station:TCOON:127:1,2019-04-03T21:30:00Z,28.2598,-96.7737,1.0,8.43,1111122 
TCOON,ioos:station:TCOON:127:1,2019-04-03T22:30:00Z,28.2598,-96.7737,1.0,8.45,1111122 
TCOON,ioos:station:TCOON:127:1,2019-04-03T23:30:00Z,28.2598,-96.7737,1.0,8.42,1111122 
TCOON,ioos:station:TCOON:127:1,2019-04-04T00:30:00Z,28.2598,-96.7737,1.0,8.48,1111122 
TCOON,ioos:station:TCOON:127:1,2019-04-04T01:30:00Z,28.2598,-96.7737,1.0,8.45,1111122 
TCOON,ioos:station:TCOON:127:1,2019-04-04T02:30:00Z,28.2598,-96.7737,1.0,8.48,1111122 
TCOON,ioos:station:TCOON:127:1,2019-04-04T03:30:00Z,28.2598,-96.7737,1.0,8.46,1111122 
TCOON,ioos:station:TCOON:127:1,2019-04-04T04:30:00Z,28.2598,-96.7737,1.0,8.42,1111122 
TCOON,ioos:station:TCOON:127:1,2019-04-04T05:30:00Z,28.2598,-96.7737,1.0,8.36,1111122 
TCOON,ioos:station:TCOON:127:1,2019-04-04T06:30:00Z,28.2598,-96.7737,1.0,8.34,1111122 
TCOON,ioos:station:TCOON:127:1,2019-04-04T07:30:00Z,28.2598,-96.7737,1.0,8.56,1111122 
TCOON,ioos:station:TCOON:127:1,2019-04-04T08:30:00Z,28.2598,-96.7737,1.0,8.62,1111122 
TCOON,ioos:station:TCOON:127:1,2019-04-04T09:30:00Z,28.2598,-96.7737,1.0,8.61,1111122 
TCOON,ioos:station:TCOON:127:1,2019-04-04T10:30:00Z,28.2598,-96.7737,1.0,8.35,1111122 
TCOON,ioos:station:TCOON:127:1,2019-04-04T11:30:00Z,28.2598,-96.7737,1.0,8.31,1111122 
TCOON,ioos:station:TCOON:127:1,2019-04-04T12:30:00Z,28.2598,-96.7737,1.0,8.32,1111122 
TCOON,ioos:station:TCOON:127:1,2019-04-04T13:30:00Z,28.2598,-96.7737,1.0,8.31,1111122 
TCOON,ioos:station:TCOON:127:1,2019-04-04T14:30:00Z,28.2598,-96.7737,1.0,8.29,1111122 
TCOON,ioos:station:TCOON:127:1,2019-04-04T15:30:00Z,28.2598,-96.7737,1.0,8.35,1111122 
TCOON,ioos:station:TCOON:127:1,2019-04-04T16:30:00Z,28.2598,-96.7737,1.0,8.38,1111122 
TCOON,ioos:station:TCOON:127:1,2019-04-04T17:30:00Z,28.2598,-96.7737,1.0,8.35,1111122 
TCOON,ioos:station:TCOON:127:1,2019-04-04T18:30:00Z,28.2598,-96.7737,1.0,8.31,1111122 
TCOON,ioos:station:TCOON:127:1,2019-04-04T19:30:00Z,28.2598,-96.7737,1.0,8.35,1111122 
TCOON,ioos:station:TCOON:127:1,2019-04-04T20:30:00Z,28.2598,-96.7737,1.0,8.05,1111122 
TCOON,ioos:station:TCOON:127:1,2019-04-04T21:30:00Z,28.2598,-96.7737,1.0,8.14,1111122 
TCOON,ioos:station:TCOON:127:1,2019-04-04T22:30:00Z,28.2598,-96.7737,1.0,8.51,1111122 
TCOON,ioos:station:TCOON:127:1,2019-04-04T23:30:00Z,28.2598,-96.7737,1.0,8.41,1111122 
TCOON,ioos:station:TCOON:127:1,2019-04-05T00:30:00Z,28.2598,-96.7737,1.0,8.37,1111122 
TCOON,ioos:station:TCOON:127:1,2019-04-05T01:30:00Z,28.2598,-96.7737,1.0,8.45,1111122 
TCOON,ioos:station:TCOON:127:1,2019-04-05T02:30:00Z,28.2598,-96.7737,1.0,8.28,1111122 
TCOON,ioos:station:TCOON:127:1,2019-04-05T03:30:00Z,28.2598,-96.7737,1.0,8.19,1111122 
TCOON,ioos:station:TCOON:127:1,2019-04-05T04:30:00Z,28.2598,-96.7737,1.0,8.2,1111122 
TCOON,ioos:station:TCOON:127:1,2019-04-05T05:30:00Z,28.2598,-96.7737,1.0,8.58,1111122 
TCOON,ioos:station:TCOON:127:1,2019-04-05T06:30:00Z,28.2598,-96.7737,1.0,8.63,1111122 
TCOON,ioos:station:TCOON:127:1,2019-04-05T07:30:00Z,28.2598,-96.7737,1.0,8.39,1111122 
TCOON,ioos:station:TCOON:127:1,2019-04-05T08:30:00Z,28.2598,-96.7737,1.0,8.4,1111122 
TCOON,ioos:station:TCOON:127:1,2019-04-05T09:30:00Z,28.2598,-96.7737,1.0,8.07,1111122 
TCOON,ioos:station:TCOON:127:1,2019-04-05T10:30:00Z,28.2598,-96.7737,1.0,8.1,1111122 
TCOON,ioos:station:TCOON:127:1,2019-04-05T11:30:00Z,28.2598,-96.7737,1.0,8.07,1111122 
TCOON,ioos:station:TCOON:127:1,2019-04-05T12:30:00Z,28.2598,-96.7737,1.0,8.4,1111122 
TCOON,ioos:station:TCOON:127:1,2019-04-05T13:30:00Z,28.2598,-96.7737,1.0,8.3,1111122 
TCOON,ioos:station:TCOON:127:1,2019-04-05T14:30:00Z,28.2598,-96.7737,1.0,8.37,1111122 
TCOON,ioos:station:TCOON:127:1,2019-04-05T15:30:00Z,28.2598,-96.7737,1.0,8.44,1111122 
TCOON,ioos:station:TCOON:127:1,2019-04-05T16:30:00Z,28.2598,-96.7737,1.0,8.45,1111122 
TCOON,ioos:station:TCOON:127:1,2019-04-05T17:30:00Z,28.2598,-96.7737,1.0,8.33,1111122 
TCOON,ioos:station:TCOON:127:1,2019-04-05T18:30:00Z,28.2598,-96.7737,1.0,8.43,1111122 
TCOON,ioos:station:TCOON:127:1,2019-04-05T19:30:00Z,28.2598,-96.7737,1.0,8.39,1111122 
TCOON,ioos:station:TCOON:127:1,2019-04-05T20:30:00Z,28.2598,-96.7737,1.0,8.64,1111122 
TCOON,ioos:station:TCOON:127:1,2019-04-05T21:30:00Z,28.2598,-96.7737,1.0,8.67,1111122 
TCOON,ioos:station:TCOON:127:1,2019-04-05T22:30:00Z,28.2598,-96.7737,1.0,8.71,1111122 
TCOON,ioos:station:TCOON:127:1,2019-04-05T23:30:00Z,28.2598,-96.7737,1.0,8.77,1111122 
TCOON,ioos:station:TCOON:127:1,2019-04-06T00:30:00Z,28.2598,-96.7737,1.0,8.76,1111122 
TCOON,ioos:station:TCOON:127:1,2019-04-06T01:30:00Z,28.2598,-96.7737,1.0,8.75,1111122 
TCOON,ioos:station:TCOON:127:1,2019-04-06T02:30:00Z,28.2598,-96.7737,1.0,8.75,1111122 
TCOON,ioos:station:TCOON:127:1,2019-04-06T03:30:00Z,28.2598,-96.7737,1.0,8.73,1111122 
TCOON,ioos:station:TCOON:127:1,2019-04-06T04:30:00Z,28.2598,-96.7737,1.0,8.7,1111122 
TCOON,ioos:station:TCOON:127:1,2019-04-06T05:30:00Z,28.2598,-96.7737,1.0,8.82,1111122 
TCOON,ioos:station:TCOON:127:1,2019-04-06T06:30:00Z,28.2598,-96.7737,1.0,8.84,1111122 
TCOON,ioos:station:TCOON:127:1,2019-04-06T07:30:00Z,28.2598,-96.7737,1.0,8.8,1111122 
TCOON,ioos:station:TCOON:127:1,2019-04-06T08:30:00Z,28.2598,-96.7737,1.0,8.61,1111122 
TCOON,ioos:station:TCOON:127:1,2019-04-06T09:30:00Z,28.2598,-96.7737,1.0,8.44,1111122 
TCOON,ioos:station:TCOON:127:1,2019-04-06T10:30:00Z,28.2598,-96.7737,1.0,8.39,1111122 
TCOON,ioos:station:TCOON:127:1,2019-04-06T11:30:00Z,28.2598,-96.7737,1.0,8.31,1111122 
TCOON,ioos:station:TCOON:127:1,2019-04-06T12:30:00Z,28.2598,-96.7737,1.0,8.29,1111122 
TCOON,ioos:station:TCOON:127:1,2019-04-06T13:30:00Z,28.2598,-96.7737,1.0,8.2,1111122 
TCOON,ioos:station:TCOON:127:1,2019-04-06T14:30:00Z,28.2598,-96.7737,1.0,8.16,1111122 
TCOON,ioos:station:TCOON:127:1,2019-04-06T15:30:00Z,28.2598,-96.7737,1.0,8.17,1111122 
TCOON,ioos:station:TCOON:127:1,2019-04-06T16:30:00Z,28.2598,-96.7737,1.0,8.22,1111122 
TCOON,ioos:station:TCOON:127:1,2019-04-06T17:30:00Z,28.2598,-96.7737,1.0,8.23,1111122 
TCOON,ioos:station:TCOON:127:1,2019-04-06T18:30:00Z,28.2598,-96.7737,1.0,8.34,1111122 
TCOON,ioos:station:TCOON:127:1,2019-04-06T19:30:00Z,28.2598,-96.7737,1.0,8.52,1111122 
TCOON,ioos:station:TCOON:127:1,2019-04-06T20:30:00Z,28.2598,-96.7737,1.0,8.71,1111122 
TCOON,ioos:station:TCOON:127:1,2019-04-06T21:30:00Z,28.2598,-96.7737,1.0,8.81,1111122 
TCOON,ioos:station:TCOON:127:1,2019-04-06T22:30:00Z,28.2598,-96.7737,1.0,8.69,1111122 
TCOON,ioos:station:TCOON:127:1,2019-04-06T23:30:00Z,28.2598,-96.7737,1.0,8.95,1111122 
TCOON,ioos:station:TCOON:127:1,2019-04-07T00:30:00Z,28.2598,-96.7737,1.0,8.92,1111122 
TCOON,ioos:station:TCOON:127:1,2019-04-07T01:30:00Z,28.2598,-96.7737,1.0,8.76,1111122 
TCOON,ioos:station:TCOON:127:1,2019-04-07T02:30:00Z,28.2598,-96.7737,1.0,8.63,1111122 
TCOON,ioos:station:TCOON:127:1,2019-04-07T03:30:00Z,28.2598,-96.7737,1.0,8.52,1111122 
TCOON,ioos:station:TCOON:127:1,2019-04-07T04:30:00Z,28.2598,-96.7737,1.0,8.39,1111122 
TCOON,ioos:station:TCOON:127:1,2019-04-07T05:30:00Z,28.2598,-96.7737,1.0,8.28,1111122 
TCOON,ioos:station:TCOON:127:1,2019-04-07T06:30:00Z,28.2598,-96.7737,1.0,8.18,1111122 
TCOON,ioos:station:TCOON:127:1,2019-04-07T07:30:00Z,28.2598,-96.7737,1.0,8.1,1111122 
TCOON,ioos:station:TCOON:127:1,2019-04-07T08:30:00Z,28.2598,-96.7737,1.0,8.05,1111122 
TCOON,ioos:station:TCOON:127:1,2019-04-07T09:30:00Z,28.2598,-96.7737,1.0,7.99,1111122 
TCOON,ioos:station:TCOON:127:1,2019-04-07T10:30:00Z,28.2598,-96.7737,1.0,7.91,1111122 
TCOON,ioos:station:TCOON:127:1,2019-04-07T11:30:00Z,28.2598,-96.7737,1.0,7.87,1111122 
TCOON,ioos:station:TCOON:127:1,2019-04-07T12:30:00Z,28.2598,-96.7737,1.0,7.78,1111122 
TCOON,ioos:station:TCOON:127:1,2019-04-07T13:30:00Z,28.2598,-96.7737,1.0,7.72,1111122 
TCOON,ioos:station:TCOON:127:1,2019-04-08T06:30:00Z,28.2598,-96.7737,1.0,7.76,1111122 
TCOON,ioos:station:TCOON:127:1,2019-04-08T07:30:00Z,28.2598,-96.7737,1.0,7.58,1111122 
TCOON,ioos:station:TCOON:127:1,2019-04-08T08:30:00Z,28.2598,-96.7737,1.0,7.58,1111122 
TCOON,ioos:station:TCOON:127:1,2019-04-08T09:30:00Z,28.2598,-96.7737,1.0,7.5,1111122 
TCOON,ioos:station:TCOON:127:1,2019-04-08T10:30:00Z,28.2598,-96.7737,1.0,7.08,1111122 
TCOON,ioos:station:TCOON:127:1,2019-04-08T11:30:00Z,28.2598,-96.7737,1.0,7.08,1111122 
TCOON,ioos:station:TCOON:127:1,2019-04-08T12:30:00Z,28.2598,-96.7737,1.0,7.06,1111122 
TCOON,ioos:station:TCOON:127:1,2019-04-08T13:30:00Z,28.2598,-96.7737,1.0,7.07,1111122 
TCOON,ioos:station:TCOON:127:1,2019-04-08T14:30:00Z,28.2598,-96.7737,1.0,7.16,1111122 
TCOON,ioos:station:TCOON:127:1,2019-04-08T15:30:00Z,28.2598,-96.7737,1.0,7.32,1111122 
TCOON,ioos:station:TCOON:127:1,2019-04-08T16:30:00Z,28.2598,-96.7737,1.0,7.43,1111122 
TCOON,ioos:station:TCOON:127:1,2019-04-08T17:30:00Z,28.2598,-96.7737,1.0,7.63,1111122 
TCOON,ioos:station:TCOON:127:1,2019-04-08T18:30:00Z,28.2598,-96.7737,1.0,7.84,1111122 
TCOON,ioos:station:TCOON:127:1,2019-04-08T19:30:00Z,28.2598,-96.7737,1.0,8.01,1111122 
TCOON,ioos:station:TCOON:127:1,2019-04-08T20:30:00Z,28.2598,-96.7737,1.0,8.13,1111122 
TCOON,ioos:station:TCOON:127:1,2019-04-08T21:30:00Z,28.2598,-96.7737,1.0,8.17,1111122 
TCOON,ioos:station:TCOON:127:1,2019-04-13T06:30:00Z,28.2598,-96.7737,1.0,7.49,1111122 
TCOON,ioos:station:TCOON:127:1,2019-04-13T07:30:00Z,28.2598,-96.7737,1.0,7.44,1111122 
TCOON,ioos:station:TCOON:127:1,2019-04-13T08:30:00Z,28.2598,-96.7737,1.0,7.45,1111122 
TCOON,ioos:station:TCOON:127:1,2019-04-13T09:30:00Z,28.2598,-96.7737,1.0,7.44,1111122 
TCOON,ioos:station:TCOON:127:1,2019-04-13T10:30:00Z,28.2598,-96.7737,1.0,7.39,1111122 
TCOON,ioos:station:TCOON:127:1,2019-04-13T11:30:00Z,28.2598,-96.7737,1.0,7.4,1111122 
TCOON,ioos:station:TCOON:127:1,2019-04-13T12:30:00Z,28.2598,-96.7737,1.0,7.35,1111122 
TCOON,ioos:station:TCOON:127:1,2019-04-13T13:30:00Z,28.2598,-96.7737,1.0,7.34,1111122 
TCOON,ioos:station:TCOON:127:1,2019-04-13T14:30:00Z,28.2598,-96.7737,1.0,7.47,1111122 
TCOON,ioos:station:TCOON:127:1,2019-04-13T15:30:00Z,28.2598,-96.7737,1.0,7.57,1111122 
TCOON,ioos:station:TCOON:127:1,2019-04-13T16:30:00Z,28.2598,-96.7737,1.0,7.62,1111122 
TCOON,ioos:station:TCOON:127:1,2019-04-13T17:30:00Z,28.2598,-96.7737,1.0,7.76,1111122 
TCOON,ioos:station:TCOON:127:1,2019-04-13T18:30:00Z,28.2598,-96.7737,1.0,7.91,1111122 
TCOON,ioos:station:TCOON:127:1,2019-04-13T19:30:00Z,28.2598,-96.7737,1.0,8.06,1111122 
TCOON,ioos:station:TCOON:127:1,2019-04-14T20:30:00Z,28.2598,-96.7737,1.0,8.12,1111122 
TCOON,ioos:station:TCOON:127:1,2019-04-14T21:30:00Z,28.2598,-96.7737,1.0,8.3,1111122 
TCOON,ioos:station:TCOON:127:1,2019-04-14T22:30:00Z,28.2598,-96.7737,1.0,8.38,1111122 
TCOON,ioos:station:TCOON:127:1,2019-04-14T23:30:00Z,28.2598,-96.7737,1.0,8.4,1111122 
TCOON,ioos:station:TCOON:127:1,2019-04-15T00:30:00Z,28.2598,-96.7737,1.0,8.38,1111122 
TCOON,ioos:station:TCOON:127:1,2019-04-15T01:30:00Z,28.2598,-96.7737,1.0,8.27,1111122 
TCOON,ioos:station:TCOON:127:1,2019-04-15T02:30:00Z,28.2598,-96.7737,1.0,8.08,1111122 
TCOON,ioos:station:TCOON:127:1,2019-04-15T03:30:00Z,28.2598,-96.7737,1.0,8.07,1111122 
TCOON,ioos:station:TCOON:127:1,2019-04-15T04:30:00Z,28.2598,-96.7737,1.0,8.02,1111122 
TCOON,ioos:station:TCOON:127:1,2019-04-15T18:30:00Z,28.2598,-96.7737,1.0,7.93,1111122 
TCOON,ioos:station:TCOON:127:1,2019-04-15T19:30:00Z,28.2598,-96.7737,1.0,8.04,1111122 
TCOON,ioos:station:TCOON:127:1,2019-04-15T20:30:00Z,28.2598,-96.7737,1.0,8.13,1111122 
TCOON,ioos:station:TCOON:127:1,2019-04-15T21:30:00Z,28.2598,-96.7737,1.0,8.15,1111122 
TCOON,ioos:station:TCOON:127:1,2019-04-15T22:30:00Z,28.2598,-96.7737,1.0,8.11,1111122 
TCOON,ioos:station:TCOON:127:1,2019-04-15T23:30:00Z,28.2598,-96.7737,1.0,8.04,1111122 
TCOON,ioos:station:TCOON:127:1,2019-04-16T00:30:00Z,28.2598,-96.7737,1.0,8.08,1111122 
TCOON,ioos:station:TCOON:127:1,2019-04-16T01:30:00Z,28.2598,-96.7737,1.0,7.87,1111122 
TCOON,ioos:station:TCOON:127:1,2019-04-16T02:30:00Z,28.2598,-96.7737,1.0,7.76,1111122 
TCOON,ioos:station:TCOON:127:1,2019-04-16T03:30:00Z,28.2598,-96.7737,1.0,7.76,1111122 
TCOON,ioos:station:TCOON:127:1,2019-04-16T04:30:00Z,28.2598,-96.7737,1.0,7.74,1111122 
TCOON,ioos:station:TCOON:127:1,2019-04-16T05:30:00Z,28.2598,-96.7737,1.0,7.69,1111122 
TCOON,ioos:station:TCOON:127:1,2019-04-16T06:30:00Z,28.2598,-96.7737,1.0,7.65,1111122 
TCOON,ioos:station:TCOON:127:1,2019-04-16T07:30:00Z,28.2598,-96.7737,1.0,7.54,1111122 
TCOON,ioos:station:TCOON:127:1,2019-04-16T08:30:00Z,28.2598,-96.7737,1.0,7.54,1111122 
TCOON,ioos:station:TCOON:127:1,2019-04-16T09:30:00Z,28.2598,-96.7737,1.0,7.52,1111122 
TCOON,ioos:station:TCOON:127:1,2019-04-16T10:30:00Z,28.2598,-96.7737,1.0,7.47,1111122 
TCOON,ioos:station:TCOON:127:1,2019-04-16T11:30:00Z,28.2598,-96.7737,1.0,7.44,1111122 
TCOON,ioos:station:TCOON:127:1,2019-04-16T12:30:00Z,28.2598,-96.7737,1.0,7.44,1111122 
TCOON,ioos:station:TCOON:127:1,2019-04-16T13:30:00Z,28.2598,-96.7737,1.0,7.46,1111122 
TCOON,ioos:station:TCOON:127:1,2019-04-16T14:30:00Z,28.2598,-96.7737,1.0,7.48,1111122 
TCOON,ioos:station:TCOON:127:1,2019-04-16T15:30:00Z,28.2598,-96.7737,1.0,7.53,1111122 
TCOON,ioos:station:TCOON:127:1,2019-04-16T16:30:00Z,28.2598,-96.7737,1.0,7.6,1111122 
TCOON,ioos:station:TCOON:127:1,2019-04-16T17:30:00Z,28.2598,-96.7737,1.0,7.65,1111122 
TCOON,ioos:station:TCOON:127:1,2019-04-16T18:30:00Z,28.2598,-96.7737,1.0,7.77,1111122 
TCOON,ioos:station:TCOON:127:1,2019-04-16T19:30:00Z,28.2598,-96.7737,1.0,7.84,11111222 
TCOON,ioos:station:TCOON:127:1,2019-04-16T20:30:00Z,28.2598,-96.7737,1.0,7.96,11111222 
TCOON,ioos:station:TCOON:127:1,2019-04-16T21:30:00Z,28.2598,-96.7737,1.0,8.1,11111222 
TCOON,ioos:station:TCOON:127:1,2019-04-16T22:30:00Z,28.2598,-96.7737,1.0,7.98,11111222 
TCOON,ioos:station:TCOON:127:1,2019-04-16T23:30:00Z,28.2598,-96.7737,1.0,7.96,11111222 
TCOON,ioos:station:TCOON:127:1,2019-04-17T00:30:00Z,28.2598,-96.7737,1.0,7.88,11111222 
TCOON,ioos:station:TCOON:127:1,2019-04-17T01:30:00Z,28.2598,-96.7737,1.0,8.04,11111222 
TCOON,ioos:station:TCOON:127:1,2019-04-17T02:30:00Z,28.2598,-96.7737,1.0,7.89,11111222 
TCOON,ioos:station:TCOON:127:1,2019-04-17T03:30:00Z,28.2598,-96.7737,1.0,7.83,11111222 
TCOON,ioos:station:TCOON:127:1,2019-04-17T04:30:00Z,28.2598,-96.7737,1.0,7.78,11111222 
TCOON,ioos:station:TCOON:127:1,2019-04-17T05:30:00Z,28.2598,-96.7737,1.0,7.76,11111222 
TCOON,ioos:station:TCOON:127:1,2019-04-17T06:30:00Z,28.2598,-96.7737,1.0,7.73,11111222 
TCOON,ioos:station:TCOON:127:1,2019-04-17T07:30:00Z,28.2598,-96.7737,1.0,7.7,11111222 
TCOON,ioos:station:TCOON:127:1,2019-04-17T08:30:00Z,28.2598,-96.7737,1.0,7.68,11111222 
TCOON,ioos:station:TCOON:127:1,2019-04-17T09:30:00Z,28.2598,-96.7737,1.0,7.66,11111222 
TCOON,ioos:station:TCOON:127:1,2019-04-17T10:30:00Z,28.2598,-96.7737,1.0,7.64,11111222 
TCOON,ioos:station:TCOON:127:1,2019-04-17T11:30:00Z,28.2598,-96.7737,1.0,7.63,11111222 
TCOON,ioos:station:TCOON:127:1,2019-04-17T12:30:00Z,28.2598,-96.7737,1.0,7.62,11111222 
TCOON,ioos:station:TCOON:127:1,2019-04-17T13:30:00Z,28.2598,-96.7737,1.0,7.57,11111222 
TCOON,ioos:station:TCOON:127:1,2019-04-17T14:30:00Z,28.2598,-96.7737,1.0,7.55,11111222 
TCOON,ioos:station:TCOON:127:1,2019-04-17T15:30:00Z,28.2598,-96.7737,1.0,7.61,11111222 
TCOON,ioos:station:TCOON:127:1,2019-04-17T16:30:00Z,28.2598,-96.7737,1.0,7.67,11111222 
TCOON,ioos:station:TCOON:127:1,2019-04-17T17:30:00Z,28.2598,-96.7737,1.0,7.67,11111222 
TCOON,ioos:station:TCOON:127:1,2019-04-17T18:30:00Z,28.2598,-96.7737,1.0,7.7,11111222 
TCOON,ioos:station:TCOON:127:1,2019-04-17T19:30:00Z,28.2598,-96.7737,1.0,7.83,11111222 
TCOON,ioos:station:TCOON:127:1,2019-04-17T20:30:00Z,28.2598,-96.7737,1.0,7.87,11111222 
TCOON,ioos:station:TCOON:127:1,2019-04-17T21:30:00Z,28.2598,-96.7737,1.0,7.92,11111222 
TCOON,ioos:station:TCOON:127:1,2019-04-17T22:30:00Z,28.2598,-96.7737,1.0,7.98,11111222 
TCOON,ioos:station:TCOON:127:1,2019-04-17T23:30:00Z,28.2598,-96.7737,1.0,7.97,11111222 
TCOON,ioos:station:TCOON:127:1,2019-04-18T00:30:00Z,28.2598,-96.7737,1.0,7.91,11111222 
TCOON,ioos:station:TCOON:127:1,2019-04-18T01:30:00Z,28.2598,-96.7737,1.0,7.81,11111222 
TCOON,ioos:station:TCOON:127:1,2019-04-18T11:30:00Z,28.2598,-96.7737,1.0,7.63,11111222 
TCOON,ioos:station:TCOON:127:1,2019-04-18T12:30:00Z,28.2598,-96.7737,1.0,7.64,11111222 
TCOON,ioos:station:TCOON:127:1,2019-04-18T13:30:00Z,28.2598,-96.7737,1.0,7.63,11111222 
TCOON,ioos:station:TCOON:127:1,2019-04-18T14:30:00Z,28.2598,-96.7737,1.0,7.7,11111222 
TCOON,ioos:station:TCOON:127:1,2019-04-18T15:30:00Z,28.2598,-96.7737,1.0,7.73,11111222 
TCOON,ioos:station:TCOON:127:1,2019-04-18T16:30:00Z,28.2598,-96.7737,1.0,7.82,11111222 
TCOON,ioos:station:TCOON:127:1,2019-04-18T17:30:00Z,28.2598,-96.7737,1.0,7.98,11111222 
TCOON,ioos:station:TCOON:127:1,2019-04-18T18:30:00Z,28.2598,-96.7737,1.0,8.42,11111222 
TCOON,ioos:station:TCOON:127:1,2019-04-18T19:30:00Z,28.2598,-96.7737,1.0,8.77,11111222 
TCOON,ioos:station:TCOON:127:1,2019-04-18T20:30:00Z,28.2598,-96.7737,1.0,8.91,11111222 
TCOON,ioos:station:TCOON:127:1,2019-04-18T21:30:00Z,28.2598,-96.7737,1.0,8.85,11111222 
TCOON,ioos:station:TCOON:127:1,2019-04-18T22:30:00Z,28.2598,-96.7737,1.0,8.7,11111222 
TCOON,ioos:station:TCOON:127:1,2019-04-18T23:30:00Z,28.2598,-96.7737,1.0,8.69,11111222 
TCOON,ioos:station:TCOON:127:1,2019-04-19T00:30:00Z,28.2598,-96.7737,1.0,8.71,11111222 
TCOON,ioos:station:TCOON:127:1,2019-04-19T01:30:00Z,28.2598,-96.7737,1.0,8.62,11111222 
TCOON,ioos:station:TCOON:127:1,2019-04-19T02:30:00Z,28.2598,-96.7737,1.0,8.34,11111222 
TCOON,ioos:station:TCOON:127:1,2019-04-19T03:30:00Z,28.2598,-96.7737,1.0,8.15,11111222 
TCOON,ioos:station:TCOON:127:1,2019-04-19T04:30:00Z,28.2598,-96.7737,1.0,8.11,11111222 
TCOON,ioos:station:TCOON:127:1,2019-04-19T05:30:00Z,28.2598,-96.7737,1.0,8.18,11111222 
TCOON,ioos:station:TCOON:127:1,2019-04-19T06:30:00Z,28.2598,-96.7737,1.0,7.89,11111222 
TCOON,ioos:station:TCOON:127:1,2019-04-19T07:30:00Z,28.2598,-96.7737,1.0,7.9,11111222 